Regional Weather Roundup
Issued by NWS

Home | Current Version | Previous Version | Text Only | Print | Product List | Glossary Off
Versions: 1 2 3 4 5 6 7 8 9 10 11 12 13 14 15 16 17 18 19 20 21 22 23 24 25 26 27 28 29 30 31 32 33 34 35 36 37 38 39 40 41 42 43 44 45 46 47 48 49 50

000
ASUS43 KOAX 262002
RWRNE

WEATHER ROUNDUP FOR NEBRASKA
NATIONAL WEATHER SERVICE OMAHA NE
200 PM CST WED NOV 26 2014

NOTES: SATELLITE DATA IS BEING USED TO AUGMENT CLOUD COVER ABOVE
       12000 FEET.
       "FAIR" INDICATES FEW OR NO CLOUDS BELOW 12,000 FEET WITH NO
       SIGNIFICANT WEATHER AND/OR OBSTRUCTIONS TO VISIBILITY.

  * THESE STATIONS DO NOT REPORT WEATHER SUCH AS RAIN...SNOW OR FOG.

NEZ001>004-019>022-054>056-262100-
NEBRASKA PANHANDLE

CITY           SKY/WX    TMP DP  RH WIND       PRES   REMARKS
SCOTTSBLUFF    MIX PCPN  30  27  88 SW3       30.23R
ALLIANCE       LGT SNOW  30  25  81 W5        30.22R WCI  25
CHADRON        CLOUDY    45  23  42 CALM      30.24R
SIDNEY         CLOUDY    29  26  89 CALM      30.22F
$$

NEZ057>060-069>072-079>082-262100-
SOUTHWEST NEBRASKA

CITY           SKY/WX    TMP DP  RH WIND       PRES   REMARKS
NORTH PLATTE   CLOUDY    34  19  54 N10       30.26R WCI  26
IMPERIAL       CLOUDY    34  21  59 N13       30.26S WCI  25
MCCOOK         CLOUDY    37  18  46 NW14      30.27S WCI  28
$$

NEZ005>010-023>029-035>040-094-262100-
NORTH CENTRAL NEBRASKA

CITY           SKY/WX    TMP DP  RH WIND       PRES   REMARKS
VALENTINE      CLOUDY    27  17  66 NW8       30.28S WCI  19
BROKEN BOW     CLOUDY    30  18  60 N18       30.26R WCI  18
ORD            CLOUDY    29  17  61 NW15      30.26R WCI  18
$$

NEZ041-046>049-061>064-073>077-083>087-262100-
SOUTH CENTRAL NEBRASKA

CITY           SKY/WX    TMP DP  RH WIND       PRES   REMARKS
GRAND ISLAND   CLOUDY    29  19  66 NW23G31   30.26R WCI  15
HASTINGS       CLOUDY    31  19  61 N23G36    30.24R WCI  18
KEARNEY *      CLOUDY    30  18  59 NW22      30.26R WCI  17
$$

NEZ011>018-030>034-042>045-262100-
NORTHEAST NEBRASKA

CITY           SKY/WX    TMP DP  RH WIND       PRES   REMARKS
NORFOLK        CLOUDY    24  18  77 NW23      30.24R WCI   9
COLUMBUS *     CLOUDY    25  16  68 N16G25    30.25R WCI  12
TEKAMAH        CLOUDY    30  22  72 N25G31    30.19R WCI  16
$$

NEZ050>053-065>068-078-088>093-262100-
SOUTHEAST NEBRASKA

CITY           SKY/WX    TMP DP  RH WIND       PRES   REMARKS
LINCOLN        CLOUDY    29  19  66 N25G33    30.20R WCI  14
OMAHA EPPLEY   CLOUDY    29  22  75 N23G37    30.17R WCI  15
FALLS CITY     CLOUDY    33  25  72 NW25G33   30.10R WCI  20
$$

NEZ044-045-051>053-067-262100-
OMAHA AREA

CITY           SKY/WX    TMP DP  RH WIND       PRES   REMARKS
OMAHA EPPLEY   CLOUDY    29  22  75 N23G37    30.17R WCI  15
$$



USA.gov is the U.S. government's official web portal to all federal, state and local government web resources and services.